Weather History for Lawton, OK

Change the Weather History Date:

Thursday, May 23, 2013

  Actual Average Record
Temperature  
Mean Temperature 76 °F -  
Max Temperature 89 °F 83 °F 109 °F (2000)
Min Temperature 64 °F 61 °F 51 °F (1967)
Cooling Degree Days 11    
Growing Degree Days 26 (Base 50)    
Moisture  
Dew Point 60 °F    
Average Humidity 63    
Maximum Humidity 83    
Minimum Humidity 34    
Precipitation  
Precipitation 0.00 in - - ()
Sea Level Pressure  
Sea Level Pressure 29.95 in    
Wind  
Wind Speed 11 mph (ESE)    
Max Wind Speed 24 mph    
Max Gust Speed 34 mph    
Visibility 10 miles    
Events      
Averages and records for this station are not official NWS values.
T = Trace of Precipitation, MM = Missing Value Source: NWS Daily Summary

Daily Weather History Graph

Daily Weather History Graph

Search for Another Location

Airport:

Trip Planner

Search our weather history database for the weather conditions in past years. The results will help you decide how hot, cold, wet, or windy it might be!

Date:

Astronomy

May. 23, 2013 Rise Set
Actual Time 6:25 AM CDT 8:35 PM CDT
Civil Twilight 5:57 AM CDT 9:04 PM CDT
Nautical Twilight 5:22 AM CDT 9:38 PM CDT
Astronomical Twilight 4:45 AM CDT 10:16 PM CDT
Moon 7:12 PM CDT (5/23) 5:07 AM CDT (5/23)
Length of Visible Light 15h 06m
Length of Day
14h 09m
Waxing Gibbous, 97% of the Moon is Illuminated
May 23
Waxing Gibbous
May 24
Full
May 31
Last Quarter
Jun 8
New
Jun 16
First Quarter

Hourly Weather History & Observations

Time (CDT) Temp. Heat Index Dew Point Humidity Pressure Visibility Wind Dir Wind Speed Gust Speed Precip Events Conditions
12:53 AM 64.9 °F - 57.0 °F 75% 29.87 in 10.0 mi ESE 5.8 mph - N/A   Clear
1:53 AM 64.9 °F - 57.0 °F 75% 29.87 in 10.0 mi ESE 6.9 mph - N/A   Clear
2:53 AM 64.9 °F - 57.9 °F 78% 29.87 in 10.0 mi ESE 5.8 mph - N/A   Clear
3:53 AM 64.9 °F - 57.9 °F 78% 29.87 in 10.0 mi East 4.6 mph - N/A   Clear
4:53 AM 64.9 °F - 59.0 °F 81% 29.87 in 10.0 mi East 5.8 mph - N/A   Clear
5:17 AM 64.4 °F - 59.0 °F 83% 29.90 in 10.0 mi East 4.6 mph - N/A   Mostly Cloudy
5:53 AM 66.9 °F - 60.1 °F 79% 29.88 in 10.0 mi ENE 5.8 mph - N/A   Overcast
6:53 AM 69.1 °F - 62.1 °F 78% 29.89 in 10.0 mi ESE 9.2 mph - N/A   Overcast
7:49 AM 69.8 °F - 62.6 °F 78% 29.96 in 10.0 mi East 11.5 mph - N/A   Overcast
7:53 AM 69.1 °F - 63.0 °F 81% 29.93 in 10.0 mi East 12.7 mph - N/A   Overcast
8:31 AM 69.8 °F - 64.4 °F 83% 29.99 in 10.0 mi East 19.6 mph 27.6 mph N/A   Overcast
8:53 AM 70.0 °F - 62.1 °F 76% 29.97 in 10.0 mi East 19.6 mph 25.3 mph N/A   Overcast
9:41 AM 71.6 °F - 55.4 °F 57% 30.02 in 10.0 mi ESE 18.4 mph 25.3 mph N/A   Overcast
9:53 AM 73.0 °F - 55.9 °F 55% 29.99 in 10.0 mi ESE 16.1 mph - N/A   Overcast
10:04 AM 73.4 °F - 55.4 °F 53% 30.03 in 10.0 mi East 17.3 mph 25.3 mph N/A   Overcast
10:53 AM 77.0 °F - 55.9 °F 48% 30.00 in 10.0 mi ESE 16.1 mph 21.9 mph N/A   Overcast
11:53 AM 82.9 °F 82.1 °F 55.9 °F 39% 29.99 in 10.0 mi SE 20.7 mph 26.5 mph N/A   Partly Cloudy
12:53 PM 84.9 °F 83.3 °F 54.0 °F 34% 29.97 in 10.0 mi ESE 24.2 mph 34.5 mph N/A   Clear
1:53 PM 87.1 °F 85.9 °F 57.0 °F 36% 29.96 in 10.0 mi ESE 20.7 mph 32.2 mph N/A   Clear
2:53 PM 88.0 °F 87.6 °F 60.1 °F 39% 29.95 in 10.0 mi SE 23.0 mph 27.6 mph N/A   Clear
3:53 PM 87.1 °F 88.3 °F 64.0 °F 46% 29.94 in 10.0 mi ESE 17.3 mph 25.3 mph N/A   Clear
4:53 PM 84.0 °F 85.4 °F 64.0 °F 51% 29.94 in 10.0 mi ESE 13.8 mph 21.9 mph N/A   Clear
5:53 PM 82.0 °F 83.8 °F 64.9 °F 56% 29.95 in 10.0 mi East 10.4 mph 19.6 mph N/A   Overcast
6:53 PM 80.1 °F 81.1 °F 61.0 °F 52% 29.95 in 10.0 mi ESE 12.7 mph - N/A   Scattered Clouds
7:53 PM 80.1 °F 81.1 °F 61.0 °F 52% 29.93 in 10.0 mi East 21.9 mph 29.9 mph N/A   Overcast
8:53 PM 78.1 °F - 63.0 °F 60% 29.96 in 10.0 mi East 12.7 mph 21.9 mph N/A   Scattered Clouds
9:53 PM 77.0 °F - 66.0 °F 69% 29.98 in 10.0 mi East 15.0 mph - N/A   Clear
10:53 PM 73.9 °F - 64.9 °F 73% 30.02 in 10.0 mi East 11.5 mph - N/A   Clear
11:53 PM 73.9 °F - 64.0 °F 71% 30.02 in 10.0 mi East 9.2 mph - N/A   Clear